Regional Weather Roundup
Issued by NWS

Home | Current Version | Previous Version | Graphics & Text | Print | Product List | Glossary On
Versions: 1 2 3 4 5 6 7 8 9 10 11 12 13 14 15 16 17 18 19 20 21 22 23 24 25 26 27 28 29 30 31 32 33 34 35 36 37 38 39 40 41 42 43 44 45 46 47 48 49 50
000
ASUS43 KMPX 041110
RWRMN
WEATHER ROUNDUP FOR MINNESOTA
NATIONAL WEATHER SERVICE TWIN CITIES/CHANHASSEN MN
600 AM CDT FRI SEP 04 2015


NOTE: "FAIR" INDICATES FEW OR NO CLOUDS BELOW 12,000 FEET WITH NO
SIGNIFICANT WEATHER AND/OR OBSTRUCTIONS TO VISIBILITY. N/A MEANS
CURRENT SKY AND/OR WEATHER CONDITIONS ARE NOT AVAILABLE.

MNZ060>063-068>070-041200-
   Twin Cities Metro

CITY           SKY/WX    TMP DP  RH WIND       PRES   REMARKS
TWIN CITIES    PTCLDY    71  68  90 SE14      29.91F
ST PAUL        CLEAR     70  67  90 SE10      29.92S
CRYSTAL        CLEAR     72  68  87 SE12      29.90S
BLAINE         CLEAR     72  70  94 SE13      29.91F
LAKEVILLE      CLOUDY    68  68 100 E3        29.92S FOG
EDEN PRAIRIE   PTCLDY    72  69  90 E7        29.90S
SOUTH ST PAUL  CLEAR     70  67  89 SE3       29.92S
LAKE ELMO      FAIR      68  64  88 E6        29.94S
$$
MNZ001>005-007-008-013>017-022>024-027-028-041200-
   Northwest Minnesota

CITY           SKY/WX    TMP DP  RH WIND       PRES   REMARKS
BEMIDJI        CLOUDY    65  63  90 SE9       29.90S
HALLOCK        PTCLDY    72  70  94 SE7       29.79S
ROSEAU         CLOUDY    72  66  83 S12       29.84F
WARROAD        CLOUDY    70  66  88 SE13      29.86F
THIEF RVR FALL CLEAR     70  70 100 SE12      29.83S
CROOKSTON      CLEAR     72  70  94 SE10      29.80F
FOSSTON        CLOUDY    72  66  83 SE9       29.86S
DETROIT LAKES  CLOUDY    72  68  88 SE12      29.86S
MOORHEAD       PTCLDY    73  72  94 SE8       29.78F
PARK RAPIDS    CLOUDY    68  65  90 SE9       29.90R
MAHNOMEN       CLOUDY    72  69  91 SE9       29.84S
$$
MNZ006-009>011-018-025>026-041200-
   North Central Minnesota

CITY           SKY/WX    TMP DP  RH WIND       PRES   REMARKS
BAUDETTE       MOCLDY    63  59  87 SE10      29.90S
FLAG ISLAND    CLOUDY    66  63  88 SE15      29.87S
INTL FALLS     PTCLDY    56  54  93 SE7       29.94S
WASKISH        PTCLDY    63  61  94 CALM      29.90S
BIG FORK       MOCLDY    64  61  88 SE7       29.95S
LONGVILLE      PTCLDY    63  61  94 SE3       29.92S
GRAND RAPIDS     N/A     61  57  88 SE7       29.95F
CRANE LAKE     PTCLDY    55  54  94 SE1       30.00S
ORR            PTCLDY    61  55  82 SE3       29.95S
COOK           PTCLDY    57  57 100 E3        29.98S
WALKER         CLOUDY    66  63  90 SE5       29.91S
$$
MNZ012-019>021-037-041200-
   Northeast Minnesota

CITY           SKY/WX    TMP DP  RH WIND       PRES   REMARKS
DULUTH         MOCLDY    59  58  96 E7        30.00R
ELY            CLEAR     50  48  93 CALM      30.02R
HIBBING        MOCLDY    60  58  92 SE5       29.98S
EVELETH        CLOUDY    57  55  94 CALM      30.00S
DULUTH HARBOR  MOCLDY    59  57  94 NE6       30.01R
TWO HARBORS    CLEAR     59  54  82 NE3       29.99F
SILVER BAY     CLEAR     55  54  94 CALM      30.01S
GRAND MARAIS     N/A     58  56  93 CALM      30.02F
G MARAIS ARPRT CLEAR     57  54  88 E3        30.07R
$$
MNZ029>031-032-039>041-046>048-054>057-064-041200-
   West Central Minnesota

CITY           SKY/WX    TMP DP  RH WIND       PRES   REMARKS
FERGUS FALLS   CLEAR     73  73 100 SE12      29.79F
WHEATON        CLEAR     70  70 100 SE12      29.79S
MORRIS         CLEAR     73  72  94 SE12      29.80S
ALEXANDRIA     CLOUDY    72  71  97 SE12      29.87S
ELBOW LAKE     FAIR      73  72  96 SE10G16   29.81S
WADENA         CLOUDY    70  68  94 SE9       29.87S
GLENWOOD       CLOUDY    72  72 100 E9        29.86F FOG
APPLETON       FAIR      73  70  88 SE9       29.79S
BENSON         CLEAR     73  70  88 SE8       29.82S
ORTONVILLE     CLEAR     73  70  88 SE10      29.78S
MADISON        CLEAR     72  70  94 SE8       29.79S
WILLMAR        FAIR      73  72  94 SE7       29.86F
$$
MNZ033>034-036-042>043-049>051-058-059-041200-
   Central Minnesota

CITY           SKY/WX    TMP DP  RH WIND       PRES   REMARKS
ST CLOUD       MOCLDY    69  68  96 SE6       29.90R
SAUK CENTRE    CLOUDY    71  70  97 SE8       29.88S FOG
PAYNESVILLE    CLOUDY    73  72  98 E10       29.88S
AITKIN         PTCLDY    64  59  82 E3        29.92S
PINE RIVER     CLOUDY    66  64  94 SE7       29.95R
BRAINERD       PTCLDY    67  65  93 SE8       29.91S
STAPLES        CLOUDY    70  66  88 SE6       29.89S
LONG PRAIRIE   CLOUDY    70  68  94 E6        29.89S
LITTLE FALLS   CLOUDY    68  64  88 SE7       29.90R
LITCHFIELD     PTCLDY    73  73 100 SE8       29.89R
BUFFALO        FAIR      70  67  90 E6        29.90S
MAPLE LAKE     MOCLDY    71  70  96 E5        29.90S
$$
MNZ037-044-045-052-053-041200-
   East Central Minnesota

CITY           SKY/WX    TMP DP  RH WIND       PRES   REMARKS
PRINCETON      CLEAR     70  66  88 E7        29.91S
MORA           CLEAR     64  63  94 CALM      29.95F
CAMBRIDGE      CLEAR     72  61  68 SE7       29.91S
RUSH CITY      PTCLDY    67  64  87 SE6       29.94S
MOOSE LAKE     CLOUDY    59  57  94 NE3       29.96S
HINCKLEY       FAIR      66  64  94 E5        29.95S
CLOQUET        CLOUDY    59  55  88 CALM      29.98F
MCGREGOR       PTCLDY    63  61  94 SE7       29.95S
$$
MNZ071>073-080-081-089-090-097-098-041200-
   Southwest Minnesota

CITY           SKY/WX    TMP DP  RH WIND       PRES   REMARKS
MONTEVIDEO     CLEAR     72  72 100 S8        29.83S
GRANITE FALLS  CLEAR     72  70  94 SE9       29.83F
CANBY          CLEAR     70  68  95 SE6       29.80S
MARSHALL       CLEAR     73  64  73 S13       29.84R
REDWOOD FALLS  CLEAR     72  70  93 SE8       29.84S
OLIVIA         CLEAR     70  66  88 SE7       29.85S
PIPESTONE        N/A    N/A N/A N/A SE7       29.84S
WINDOM         CLEAR     72  68  88 SE9       29.87S
WORTHINGTON    CLEAR     70  64  83 S8        29.87S
JACKSON        CLEAR     72  70  94 S10       29.89S
TRACY          CLEAR     73  70  88 S10       29.84S
SLAYTON        CLEAR     69  68  99 CALM      29.87S
$$
MNZ065>067-074>077-082>085-091>093-041200-
   South Central Minnesota

CITY           SKY/WX    TMP DP  RH WIND       PRES   REMARKS
MANKATO        FAIR      72  70  94 SE9       29.89S
NEW ULM        PTCLDY    72  72 100 SE8       29.87S
ST JAMES       PTCLDY    73  70  88 SE7       29.88S
FAIRMONT       CLEAR     72  46  40 S8        29.88S
GLENCOE        PTCLDY    73  73  99 E6        29.89R FOG
FARIBAULT      CLEAR     72  70  94 SE5       29.92S
OWATONNA       CLEAR     72  70  94 SE8       29.92S
WASECA         CLEAR     72  70  94 SE6       29.92S
ALBERT LEA     CLEAR     72  70  94 SE5       29.92S
$$
MNZ078>079-086>088-094>096-041200-
   Southeast Minnesota

CITY           SKY/WX    TMP DP  RH WIND       PRES   REMARKS
ROCHESTER      CLOUDY    71  71 100 SE12      29.96S FOG
RED WING       CLEAR     72  66  83 SE10      29.93S
STANTON        CLOUDY    72  69  91 CALM      29.91S
DODGE CENTER   FOG       72  70  94 SE6       29.94F VSB 3/4
WINONA         CLEAR     70  64  83 SE5       29.97S
AUSTIN         CLEAR     72  68  88 SE6       29.94R
PRESTON        CLOUDY    69  68  94 SE6       29.98S FOG
$$
ABBREVIATIONS USED IN REMARKS
   TC - TEMPERATURES IN CELSIUS
  WCI - WIND CHILL INDEX
   HX - HEAT INDEX
  VSB - VISIBILITY
$$



USA.gov is the U.S. government's official web portal to all federal, state and local government web resources and services.